Home   Weather   Varese   Past weeks

Flag for Italy Past Weather in Varese, Italy — Yesterday and Last 2 Weeks

Now
42 °F

Quite cool.


Feels Like: 42 °F
Forecast: 36 / 44 °F
Wind: No wind

Location: Stabio

Current Time: Dec 3, 2016 at 8:56:07 pm

Latest Report: Dec 3, 2016 at 8:00 pm


Visibility: N/A

Pressure: 30.27 "Hg

Humidity: 91%

Dew Point: 40 °F

Location of VareseLocation

Past Weather in Varese — Graph

°F

Varese Temperature Yesterday

Maximum temperature yesterday: 57 °F (at 2:00 pm)
Minimum temperature yesterday: 29 °F (at 6:00 am)
Average temperature yesterday: 39 °F

High & Low Weather Summary for the Past Weeks

 TemperatureHumidityPressure
High57 °F (Dec 2, 2:00 pm)100% (Nov 20, 7:00 am)30.60 "Hg (Nov 20, 7:00 am)
Low24 °F (Nov 30, 7:00 am)43% (Nov 30, 3:00 pm)29.85 "Hg (Nov 19, 1:00 pm)
Average45 °F90%30.11 "Hg
* Reported Nov 18 7:00 pm — Dec 3 7:00 pm, Varese, Weather by CustomWeather, © 2016

Note: Actual official high and low records may vary slightly from our data, if they occured in-between our weather recording intervals... More about our weather records

Advertising

Varese Weather History for the Previous 24 Hours

Scroll right to see more
 ConditionsComfort  
Time TempWeatherWind HumidityBarometerVisibility
7:00 pm
Sat, Dec 3
42 °FQuite cool.1 mph90%30.24 "HgN/A
6:00 pm43 °FQuite cool.1 mph87%30.23 "HgN/A
5:00 pm44 °FQuite cool.1 mph84%30.21 "HgN/A
4:00 pm44 °FQuite cool.2 mph83%30.19 "HgN/A
3:00 pm45 °FCool.2 mph81%30.18 "HgN/A
2:00 pm46 °FCool.3 mph81%30.17 "HgN/A
1:00 pm45 °FCool.1 mph85%30.18 "HgN/A
12:00 pm44 °FQuite cool.1 mph92%30.19 "HgN/A
11:00 am43 °FQuite cool.1 mph90%30.20 "HgN/A
10:00 am41 °FQuite cool.1 mph94%30.19 "HgN/A
9:00 am41 °FQuite cool.1 mph92%30.17 "HgN/A
8:00 am40 °FQuite cool.1 mph94%30.16 "HgN/A
7:00 am41 °FQuite cool.1 mph89%30.15 "HgN/A
6:00 am41 °FQuite cool.1 mph88%30.14 "HgN/A
5:00 am40 °FQuite cool.1 mph89%30.14 "HgN/A
4:00 am41 °FQuite cool.No wind88%30.15 "HgN/A
3:00 am41 °FQuite cool.1 mph90%30.15 "HgN/A
2:00 am41 °FQuite cool.2 mph90%30.13 "HgN/A
1:00 am43 °FQuite cool.2 mph77%30.11 "HgN/A
12:00 am41 °FQuite cool.1 mph83%30.10 "HgN/A
11:00 pm
Fri, Dec 2
40 °FQuite cool.1 mph84%30.08 "HgN/A
10:00 pm40 °FQuite cool.2 mph91%30.06 "HgN/A
9:00 pm36 °FChilly.2 mph85%30.05 "HgN/A
8:00 pm36 °FChilly.2 mph93%30.03 "HgN/A
Weather by CustomWeather, © 2016

See weather overviewHow to use our weather pages